{"data":{"norad_id":48433,"intl_designator":"2021-040F","name":"STARLINK-2699","alt_names":[],"object_type":"PAYLOAD","status":"ACTIVE","operator":null,"country":"US","launch_date":"2021-05-09","launch_site_code":"AFETR","launch_vehicle":null,"mission":null,"orbit_class":"UNKNOWN","rcs_meters":null,"size_class":null,"mass_kg":null,"dimensions":null,"purposes":["comms"],"wikipedia_slug":null,"has_3d_model":false,"image_url":null,"decayed_at":null,"tle_current":{"epoch":"2026-09-20T03:34:48.097056Z","epoch_age_seconds":63918,"freshness":"FRESH","line1":"1 48433U 21040F   26263.14916779 -.00000173  00000+0  61829-5 0  9994","line2":"2 48433  53.1597 327.6406 0001363  93.6438 266.4719 15.31703746296827","mean_motion":15.31703746,"eccentricity":0.0001363,"inclination_deg":53.1597,"raan_deg":327.6406,"arg_perigee_deg":93.6438,"mean_anomaly_deg":266.4719,"bstar":6.1829e-6,"rev_number":29682,"period_min":94.012958038427,"perigee_km":469.79532820489,"apogee_km":471.66232902977,"semimajor_km":6848.8658286173,"source":"CELESTRAK","updated_at":"2026-09-20T09:00:39.123539Z"}}}